Vorticity
3 2 3 3 4 4 5 6 6 6 7 6 6 5 5 4 4 5 5 4 4 2 1 2 8 12 10 11 12 10 11 9 9 9 11 14 14 16 16 14 12 11 10 10 8 6 4 3 3 2 3 4 4 4 4 6 6 7 6 6 5 5 5 6 5 6 6 5 6 6 5 6 6 7 7 7 8 8 8 8 8 8 7 8 8 8
2 2 3 4 4 4 5 6 6 7 7 6 6 5 4 4 4 5 4 4 4 2 3 3 8 13 10 11 13 11 10 8 9 11 12 15 15 15 12 10 12 12 11 10 7 6 4 2 1 2 3 4 5 5 5 6 6 6 5 4 4 4 4 5 4 4 5 5 5 6 6 6 7 7 7 7 8 8 7 7 8 8 7 7 7 7
2 2 3 3 4 5 6 6 6 7 7 7 7 5 4 4 4 5 3 3 3 2 4 5 9 12 11 13 14 11 8 8 10 12 13 15 15 12 9 9 13 13 11 9 7 4 -0 -1 2 3 4 5 5 5 5 6 6 5 4 4 4 4 4 3 3 2 3 4 5 6 6 7 7 8 8 8 9 8 7 7 7 7 6 7 6 6
2 2 3 3 4 6 6 7 7 7 8 8 7 5 5 5 5 5 3 2 2 4 7 8 10 11 11 13 12 10 8 9 12 14 14 15 13 9 7 10 12 12 10 9 6 -0 -3 0 4 4 4 5 5 5 5 5 5 4 3 3 3 4 3 2 2 1 2 4 5 6 6 7 8 8 9 9 9 8 8 8 7 6 6 7 7 7
2 2 3 3 5 6 6 7 7 8 8 7 6 6 5 5 5 4 3 2 3 7 9 11 11 10 11 10 9 11 9 10 15 16 16 13 10 7 6 9 11 11 9 6 1 -4 -2 3 4 4 5 5 5 5 5 5 5 4 3 2 2 3 3 2 2 2 3 4 6 8 7 7 8 9 10 9 8 7 8 8 7 7 7 7 8 8
1 2 3 4 5 7 7 8 8 8 8 7 6 5 4 5 4 3 3 4 6 7 9 13 12 12 13 11 12 12 8 13 20 17 13 10 7 6 6 9 11 9 6 0 -4 -5 -1 2 3 5 6 6 6 5 5 6 5 5 3 3 3 3 3 3 3 2 3 5 8 9 9 9 9 9 9 8 8 7 7 7 6 7 7 7 8 8
2 3 4 5 6 8 9 9 9 8 7 6 6 4 4 4 2 2 4 6 9 9 11 16 14 11 12 11 12 13 11 18 19 11 8 7 6 6 6 9 11 9 4 -2 -6 -5 -1 2 4 5 6 6 6 5 6 6 6 5 4 3 3 4 4 3 2 2 5 8 9 10 9 10 10 9 9 7 7 7 6 7 5 5 6 6 7 7
3 4 4 6 8 9 10 9 8 7 6 6 5 4 4 2 2 5 7 8 9 9 12 14 11 8 9 10 10 12 15 16 10 6 7 7 5 5 6 9 10 8 5 -1 -5 -5 -0 3 4 5 6 6 5 5 6 6 5 4 3 4 4 5 4 2 3 5 8 10 9 10 10 10 10 9 9 8 7 7 6 6 5 5 6 5 6 7
4 4 6 8 10 10 9 9 7 6 5 5 4 4 3 3 6 7 8 9 9 10 12 13 10 6 7 13 14 14 14 11 6 6 8 7 6 5 6 7 8 8 5 -1 -5 -4 1 4 5 6 5 5 5 5 5 3 3 4 4 6 6 6 5 4 7 8 10 10 10 11 10 9 9 8 8 8 7 9 7 6 6 5 6 6 6 7
5 6 9 10 10 9 8 7 6 5 5 4 4 4 4 6 9 9 9 10 10 10 11 11 10 5 8 15 14 13 12 8 6 7 7 6 7 6 6 7 9 9 4 -2 -3 -0 4 5 5 5 4 4 5 4 4 4 5 5 6 8 7 6 7 7 9 9 9 9 9 9 8 8 9 8 8 8 7 7 7 6 6 6 6 7 7 7
7 8 10 9 8 7 6 5 5 5 5 5 5 6 7 8 8 8 8 8 8 8 8 9 8 7 14 19 12 9 9 7 8 9 8 8 8 6 6 7 8 6 0 -2 1 4 6 6 6 5 5 5 5 5 5 5 6 8 9 10 8 6 8 8 9 8 8 8 7 6 7 7 8 8 7 7 6 5 5 5 5 5 5 6 7 6
8 9 9 7 6 6 5 6 6 6 7 7 8 9 8 9 9 8 7 8 9 9 9 11 8 8 18 19 10 7 6 4 6 7 8 9 6 4 5 7 5 2 1 3 5 6 7 7 5 4 4 5 5 5 5 6 8 10 10 8 7 6 7 7 7 7 7 7 7 7 7 7 6 6 5 5 5 5 5 5 5 5 4 5 5 5
8 8 6 6 6 6 7 7 6 7 8 9 10 9 9 10 9 8 9 11 10 8 7 8 8 13 20 16 9 8 6 4 5 5 7 5 3 5 6 5 3 3 5 5 6 7 6 5 4 4 5 5 5 5 7 9 9 8 6 6 7 8 8 8 7 8 7 6 6 5 4 4 3 3 3 3 4 4 4 4 4 4 4 5 5 5
7 5 5 6 7 7 8 8 8 9 9 9 9 9 9 11 9 7 9 9 8 7 8 9 11 17 19 13 10 11 8 6 6 5 4 3 5 7 4 3 4 5 6 5 6 6 4 5 5 5 6 5 6 8 9 9 7 6 7 8 9 8 8 8 7 5 5 5 4 4 5 6 8 9 11 12 12 12 11 10 8 7 6 6 6 6
5 5 6 7 7 8 9 9 9 10 9 10 9 8 10 11 9 9 9 9 9 7 8 11 14 17 15 9 9 11 8 7 6 4 5 7 7 4 3 4 5 5 5 5 6 6 6 7 7 6 7 8 8 8 7 7 8 8 9 8 7 7 6 5 5 5 6 7 8 10 10 12 13 14 15 15 16 15 15 15 15 15 14 12 10 8
6 6 7 7 8 9 10 9 9 10 8 8 9 9 11 11 9 8 8 9 9 6 8 13 15 15 11 7 9 10 8 7 7 7 7 7 5 3 4 5 5 5 6 7 7 7 7 8 7 7 8 9 8 8 8 9 9 8 7 6 6 6 6 7 8 9 10 11 12 12 13 13 13 12 12 11 11 11 11 11 11 13 14 14 15 14
7 7 7 9 10 10 9 9 9 10 9 9 11 11 11 10 9 9 8 8 8 8 11 13 12 12 10 8 8 8 9 9 8 8 7 5 5 6 6 5 6 8 8 8 8 8 9 8 8 8 8 8 8 9 9 8 7 6 6 6 6 7 8 10 11 12 13 13 13 13 13 12 11 10 10 10 10 11 11 12 12 12 13 13 16 18
6 6 7 10 12 11 9 10 11 12 11 10 12 12 11 10 10 9 7 9 11 10 10 9 7 9 9 6 6 8 10 8 7 6 5 6 7 8 7 7 8 9 9 10 9 8 9 8 9 10 9 8 8 7 7 5 5 6 7 8 8 9 9 11 12 13 13 13 12 12 10 10 10 10 11 13 14 16 15 17 18 18 19 19 20 20
6 6 8 11 13 11 11 12 12 12 11 11 12 12 11 11 10 8 8 10 11 8 7 7 6 7 6 5 7 8 8 6 6 6 6 8 9 8 7 7 8 10 10 9 7 7 8 8 8 8 7 7 6 6 5 6 7 7 8 10 10 11 11 12 13 13 12 12 10 10 10 11 13 14 17 20 21 24 24 23 23 22 22 22 22 24
9 10 12 14 14 11 12 14 12 11 11 11 11 11 10 10 9 9 9 10 8 5 6 5 4 5 4 5 8 8 7 6 5 6 9 10 8 6 8 10 11 11 9 8 8 7 7 7 6 5 5 6 6 6 7 8 9 9 9 10 11 12 13 13 13 10 9 9 9 10 12 13 17 19 22 24 25 25 24 23 24 23 23 22 22 24
12 12 12 13 13 12 13 15 14 13 13 12 12 11 11 10 9 8 8 9 7 5 5 4 4 4 5 8 10 7 5 5 5 9 11 9 7 9 13 14 12 10 7 6 6 5 5 5 5 5 6 7 7 8 9 9 10 10 11 12 12 12 12 11 10 9 10 11 12 13 16 18 22 23 22 22 20 19 20 21 22 22 25 29 29 26
11 10 12 14 15 15 16 16 14 13 13 13 12 11 10 9 8 6 6 7 7 4 4 5 3 4 7 9 7 4 5 6 7 9 9 8 12 14 12 9 8 6 5 4 4 5 6 6 6 7 7 8 9 9 9 9 10 11 11 11 12 11 11 11 11 12 12 13 14 16 20 22 23 21 19 18 17 18 20 21 22 27 34 43 43 33
11 13 15 16 17 18 19 18 15 14 13 11 10 9 8 6 7 6 5 5 5 4 5 5 3 6 9 6 5 7 7 6 7 10 12 13 13 10 6 5 4 3 4 6 7 7 7 7 7 8 8 9 9 8 9 10 10 11 11 11 12 12 13 13 13 12 11 12 15 18 20 20 17 16 14 14 16 20 21 24 33 43 48 54 54 39
15 18 19 18 18 19 18 14 12 11 10 8 9 8 6 5 6 6 6 5 3 4 5 4 5 10 9 6 8 8 5 7 12 14 12 8 5 4 6 6 4 3 4 6 7 7 8 8 8 8 9 9 9 8 9 10 10 11 12 12 12 12 12 12 11 12 13 16 18 17 17 15 13 13 11 12 18 19 20 29 44 52 50 53 58 42
20 21 19 18 16 13 11 9 8 8 6 7 8 7 6 6 6 6 6 5 4 5 7 6 8 11 8 8 11 8 7 12 13 9 5 5 7 8 6 4 3 6 7 7 8 8 7 7 7 8 9 8 8 9 9 10 11 12 12 12 11 11 11 11 11 14 17 17 15 14 15 16 15 15 13 15 19 16 16 27 42 50 47 49 58 43
17 16 13 11 9 7 8 7 6 5 6 6 5 5 6 6 6 7 7 7 7 8 10 9 7 7 8 9 9 7 10 11 6 4 7 9 10 7 4 3 4 8 9 9 9 7 6 7 8 8 8 7 8 9 10 11 11 11 11 11 10 10 10 11 12 13 13 12 13 16 17 18 17 16 14 17 18 13 12 21 36 49 48 46 54 41
9 9 9 7 6 6 8 7 5 4 5 5 4 5 7 7 7 9 9 10 9 7 8 9 5 6 10 9 7 8 9 8 7 10 11 7 5 3 3 6 8 10 10 8 7 6 6 8 8 7 7 8 9 10 11 11 11 11 11 10 10 10 10 11 10 10 12 13 16 17 17 18 17 15 13 15 17 13 11 18 33 49 50 45 49 38
6 8 8 6 6 6 6 6 5 4 3 5 5 6 7 8 9 10 10 10 7 5 6 8 6 9 13 11 10 11 9 9 10 10 7 5 4 5 7 9 10 10 7 5 6 7 7 8 8 8 7 8 10 10 11 11 11 11 11 10 10 11 11 11 10 12 14 15 16 16 16 17 16 14 11 13 17 16 13 19 34 48 48 41 43 35
7 8 7 5 5 4 4 6 4 3 5 6 7 7 8 9 9 9 9 7 5 5 6 7 9 12 13 11 11 11 10 11 10 7 6 6 6 7 9 9 9 7 6 6 6 7 8 8 8 7 7 9 10 10 10 11 11 10 10 9 10 11 11 11 11 13 14 15 16 16 16 15 14 13 10 11 19 19 15 22 34 44 44 35 38 36
5 5 6 4 2 3 6 7 5 6 8 7 7 8 8 8 8 8 8 6 5 8 10 12 15 14 11 10 11 12 10 9 7 5 5 7 8 9 10 9 8 6 6 7 7 8 9 8 8 7 8 10 10 10 11 11 11 11 10 10 10 10 10 9 11 13 14 14 15 15 15 14 14 14 9 12 21 21 19 26 29 32 37 35 35 33
4 4 5 3 4 7 8 8 7 8 8 6 7 9 8 8 8 7 8 9 9 12 14 14 13 10 7 8 10 9 6 5 4 4 5 7 8 10 9 8 7 6 7 8 8 9 9 8 8 8 9 10 10 12 13 12 12 12 10 10 10 9 8 9 12 14 13 13 12 12 14 15 14 13 10 14 22 21 22 28 23 20 32 38 33 28
5 6 7 6 8 10 9 9 8 6 5 6 8 9 8 8 9 10 15 17 14 14 13 11 9 10 10 9 6 3 2 4 6 7 10 10 9 8 8 7 7 7 8 9 9 9 9 8 8 9 10 11 12 13 13 12 12 11 9 10 10 10 10 11 12 13 12 12 11 10 11 13 14 13 10 15 25 23 20 25 20 16 28 38 32 25
9 10 9 8 8 8 7 7 6 5 7 8 9 9 10 12 14 16 17 15 11 11 13 13 12 12 9 6 3 2 2 5 8 10 12 10 8 8 7 7 8 9 9 10 10 10 9 9 10 11 13 13 13 14 14 12 11 10 10 12 11 10 10 11 12 12 11 11 10 8 8 10 13 13 10 15 27 27 19 20 18 15 25 35 32 25
9 8 7 6 6 6 6 6 7 9 9 9 11 15 17 16 14 12 11 10 8 9 12 12 9 6 3 3 4 7 8 9 9 9 8 7 7 8 8 8 10 10 10 10 10 9 10 10 12 13 13 13 14 14 12 10 9 10 11 11 10 10 10 10 11 11 10 10 9 8 7 8 11 13 10 14 28 30 20 18 17 13 22 32 30 25
7 6 6 6 7 7 7 8 10 10 10 12 17 18 16 12 9 9 12 13 11 10 9 6 3 2 3 5 8 9 10 8 7 7 6 7 8 9 9 10 10 9 10 10 9 10 12 12 13 13 12 13 13 12 10 9 9 10 10 10 10 10 10 10 11 12 12 11 9 8 8 7 9 12 10 12 26 32 23 17 15 11 18 30 28 25
7 7 7 8 9 9 9 11 12 12 12 14 15 11 9 10 10 10 10 7 4 6 6 4 2 4 6 7 8 8 7 6 6 7 7 8 9 10 10 10 9 10 10 10 11 13 13 14 14 14 14 15 15 13 12 11 11 11 12 12 11 10 9 10 11 13 14 12 11 9 8 7 8 11 10 11 23 33 26 18 15 11 15 26 27 24
10 10 11 12 12 12 12 12 13 12 13 14 12 10 11 13 11 9 9 7 6 6 5 3 5 6 7 7 7 6 6 7 7 8 8 9 9 10 10 9 9 10 10 10 12 14 14 15 15 14 14 15 14 12 11 10 11 12 12 12 11 9 9 10 11 13 14 14 13 11 10 9 8 9 10 10 20 32 29 19 15 11 13 22 26 24
13 13 13 13 12 12 12 12 12 11 12 13 13 13 13 11 9 8 8 8 7 6 5 6 7 7 6 6 6 6 7 6 5 6 7 7 7 8 8 8 8 10 12 14 15 15 15 16 15 13 13 14 12 10 9 10 11 11 11 11 9 9 9 10 10 12 14 14 14 13 12 11 9 9 9 10 18 29 30 23 17 12 11 18 24 24
12 12 12 11 12 12 12 13 13 13 14 15 13 11 10 9 7 5 4 4 4 6 7 7 6 6 7 7 7 6 7 7 6 6 5 5 7 9 9 9 11 12 13 16 18 18 18 18 16 14 14 14 12 10 9 10 11 11 11 9 8 9 9 10 10 11 13 15 15 14 14 12 10 10 9 9 17 27 29 26 20 13 11 15 21 22
10 11 11 11 12 12 12 13 13 14 16 15 11 6 6 7 5 3 4 5 4 4 5 6 7 7 7 6 5 5 6 7 7 8 7 8 10 10 10 11 14 15 16 18 20 20 19 17 16 15 13 11 10 10 11 11 11 9 9 8 8 8 9 10 11 12 13 14 15 16 16 14 12 10 9 9 16 25 27 26 23 16 11 11 15 18
10 10 11 12 13 12 12 12 13 13 12 9 6 5 7 6 2 1 4 7 7 6 5 5 5 5 4 4 5 5 5 4 5 7 9 11 12 11 11 11 14 17 21 23 22 20 18 15 13 12 11 11 11 12 12 11 10 9 8 8 8 9 10 10 11 12 13 14 16 16 17 16 12 10 9 9 15 24 25 24 24 20 13 11 13 14
10 11 11 12 12 12 12 11 10 9 6 4 4 6 5 4 3 4 6 7 7 7 5 4 3 3 3 3 2 3 4 6 8 9 10 11 12 13 14 15 17 20 21 21 19 17 15 13 12 10 10 11 11 11 11 10 9 8 7 8 8 9 10 11 11 12 14 15 16 16 18 18 13 10 10 8 13 24 26 22 23 23 17 14 14 14
11 12 12 11 11 10 10 10 10 8 8 8 6 4 3 5 6 7 6 5 4 4 4 4 2 2 3 5 8 12 16 17 17 16 16 16 16 15 16 19 21 20 19 19 19 16 13 12 11 11 11 12 11 11 10 9 9 8 7 8 8 9 10 11 11 13 14 15 16 17 18 20 15 11 10 9 12 23 27 22 23 25 22 19 19 20
11 10 11 12 12 10 9 9 10 10 9 8 6 5 6 6 6 6 7 6 4 2 3 5 8 12 16 19 22 23 22 22 21 21 22 22 20 18 18 19 20 19 20 21 19 16 13 12 11 11 11 11 11 11 10 9 9 8 8 7 8 9 10 11 12 13 14 15 17 18 20 22 18 12 11 9 10 21 27 23 22 27 26 22 20 20
11 10 10 10 10 10 9 8 8 7 6 5 4 5 6 6 6 5 4 3 4 7 12 17 21 24 23 21 21 19 18 19 20 21 23 24 24 25 24 23 23 22 22 20 16 13 12 11 11 11 10 10 10 10 10 9 9 8 8 8 8 9 11 12 12 13 15 16 17 20 23 25 21 14 11 8 9 19 26 21 20 26 27 21 17 17
10 11 10 10 10 10 9 7 6 6 5 4 4 6 7 6 4 2 5 12 18 21 23 21 19 16 13 13 13 14 15 16 17 20 23 23 24 25 25 22 21 20 18 15 13 11 10 9 10 10 9 9 9 10 10 9 8 8 8 8 9 9 11 13 13 14 16 16 19 22 25 28 24 15 11 9 8 16 25 20 15 20 22 18 15 15
11 11 11 11 11 9 8 7 6 5 4 6 7 6 3 3 7 13 20 23 20 16 13 11 10 10 11 12 12 12 13 14 15 18 21 20 21 22 21 19 17 15 13 12 10 10 9 9 9 9 9 9 9 10 10 9 8 9 8 8 10 11 12 14 14 16 17 17 20 24 27 30 27 17 11 10 7 12 22 20 13 14 17 18 17 13
12 12 12 10 9 8 7 7 6 5 7 8 6 4 7 14 21 23 19 13 9 10 12 13 14 14 15 16 17 16 16 16 15 17 18 18 20 21 19 17 14 12 11 10 9 10 9 9 9 9 9 10 10 10 11 10 9 9 9 9 11 12 14 16 16 16 18 18 20 24 26 31 30 19 11 11 9 9 18 21 13 9 13 18 20 14
13 13 11 9 9 8 7 6 7 7 4 2 5 13 21 23 18 11 8 10 13 17 18 18 19 18 18 20 21 21 20 19 17 17 17 17 19 20 17 14 12 10 10 10 9 10 10 9 9 9 9 11 11 10 11 10 10 10 10 11 13 14 15 17 17 17 19 19 19 22 24 29 32 22 12 12 10 7 14 21 16 9 9 14 19 17
13 12 10 9 9 7 6 7 7 4 3 9 19 24 19 11 6 9 15 17 16 15 14 14 15 15 15 18 20 20 23 23 20 18 18 19 20 19 16 14 12 10 10 10 9 9 9 8 9 10 10 10 11 10 11 10 10 10 11 12 14 15 15 17 17 17 18 18 18 21 22 27 32 26 15 13 13 8 10 18 18 12 9 10 14 18
12 11 10 9 7 6 7 6 3 6 16 25 23 14 6 7 13 17 16 12 10 10 10 8 8 9 9 13 16 17 20 25 23 19 18 18 20 19 17 14 13 11 10 10 9 9 9 9 10 10 10 10 10 10 10 10 10 12 14 14 15 15 16 17 17 17 17 18 19 20 20 24 30 28 17 13 14 11 8 14 18 17 13 10 10 14
Height
5809 5807 5805 5803 5801 5799 5797 5795 5792 5790 5788 5785 5783 5781 5778 5776 5773 5771 5768 5765 5762 5759 5757 5753 5750 5747 5743 5740 5737 5732 5730 5726 5723 5720 5716 5713 5711 5708 5704 5702 5700 5697 5694 5692 5690 5688 5686 5684 5682 5679 5677 5674 5672 5669 5667 5664 5661 5658 5656 5653 5650 5647 5645 5642 5638 5634 5631 5628 5624 5622 5619 5615 5612 5609 5606 5603 5599 5595 5591 5587 5585 5582 5578 5574 5571 5568
5806 5805 5803 5800 5798 5796 5794 5791 5789 5787 5785 5782 5779 5777 5774 5772 5769 5767 5764 5761 5758 5755 5753 5749 5746 5743 5738 5736 5732 5728 5725 5722 5719 5716 5712 5709 5706 5703 5701 5698 5696 5693 5691 5689 5686 5684 5682 5680 5678 5675 5672 5670 5667 5664 5662 5659 5656 5653 5650 5647 5644 5640 5638 5635 5631 5628 5624 5621 5617 5614 5611 5608 5605 5601 5598 5595 5591 5587 5583 5579 5576 5573 5569 5566 5562 5559
5804 5802 5800 5797 5795 5793 5790 5788 5786 5783 5781 5778 5776 5773 5770 5768 5765 5763 5761 5758 5754 5751 5749 5745 5742 5739 5734 5732 5728 5724 5721 5718 5715 5711 5707 5705 5702 5699 5697 5695 5692 5690 5687 5685 5682 5680 5678 5676 5673 5670 5668 5665 5662 5659 5656 5653 5651 5647 5644 5641 5638 5634 5631 5628 5624 5621 5617 5614 5611 5607 5603 5599 5596 5593 5589 5586 5582 5578 5575 5572 5568 5564 5560 5557 5553 5550
5800 5798 5796 5794 5792 5790 5787 5785 5782 5780 5777 5775 5772 5769 5766 5764 5761 5758 5756 5753 5750 5747 5744 5740 5737 5734 5730 5728 5724 5719 5717 5713 5710 5707 5703 5700 5698 5695 5693 5691 5689 5687 5684 5681 5678 5676 5674 5671 5669 5666 5663 5660 5657 5654 5651 5648 5645 5642 5638 5635 5631 5628 5624 5620 5617 5614 5610 5606 5602 5599 5595 5591 5587 5584 5580 5577 5573 5569 5566 5563 5560 5556 5552 5548 5544 5541
5797 5795 5793 5791 5789 5786 5784 5781 5778 5776 5773 5771 5769 5765 5762 5760 5757 5754 5751 5749 5745 5742 5740 5736 5732 5729 5725 5723 5720 5714 5711 5709 5705 5702 5699 5696 5694 5691 5689 5687 5685 5683 5680 5677 5675 5673 5670 5667 5664 5661 5658 5655 5652 5649 5645 5642 5638 5635 5632 5628 5624 5621 5617 5613 5609 5605 5602 5598 5593 5590 5587 5583 5578 5574 5571 5567 5563 5560 5557 5554 5550 5547 5544 5539 5535 5532
5795 5792 5789 5787 5785 5783 5780 5778 5775 5772 5769 5767 5765 5762 5759 5756 5753 5750 5746 5744 5741 5738 5736 5732 5727 5724 5720 5717 5715 5710 5706 5703 5701 5697 5694 5692 5689 5687 5685 5683 5681 5679 5676 5673 5670 5668 5666 5663 5660 5657 5653 5649 5645 5642 5639 5635 5632 5628 5625 5621 5617 5613 5609 5605 5601 5597 5593 5589 5585 5581 5577 5574 5570 5566 5562 5557 5554 5550 5548 5545 5541 5537 5534 5530 5526 5522
5792 5789 5787 5784 5782 5779 5777 5774 5771 5768 5766 5763 5761 5758 5755 5752 5749 5746 5742 5739 5736 5733 5731 5728 5722 5720 5718 5713 5710 5706 5701 5698 5696 5693 5690 5687 5685 5682 5680 5679 5677 5674 5671 5668 5665 5663 5660 5657 5654 5651 5647 5643 5639 5636 5632 5628 5625 5621 5617 5614 5609 5605 5601 5597 5593 5589 5584 5580 5576 5572 5569 5565 5560 5557 5553 5549 5545 5542 5539 5535 5532 5528 5524 5521 5517 5513
5789 5786 5783 5781 5778 5776 5773 5770 5768 5765 5762 5759 5757 5754 5751 5748 5744 5741 5738 5734 5732 5728 5726 5725 5720 5716 5714 5710 5706 5702 5697 5694 5691 5688 5686 5683 5680 5677 5676 5675 5673 5670 5666 5663 5660 5657 5654 5651 5648 5644 5640 5636 5632 5629 5625 5621 5617 5614 5610 5605 5601 5597 5592 5588 5584 5579 5575 5571 5567 5563 5560 5556 5552 5547 5544 5539 5535 5533 5530 5526 5522 5519 5515 5512 5508 5504
5785 5782 5780 5778 5775 5772 5769 5767 5764 5761 5758 5755 5753 5750 5746 5743 5740 5737 5733 5730 5727 5724 5721 5720 5716 5713 5710 5706 5700 5697 5693 5689 5686 5684 5681 5678 5674 5672 5671 5671 5669 5665 5661 5657 5654 5651 5648 5644 5641 5637 5633 5629 5625 5621 5617 5614 5610 5606 5602 5598 5593 5588 5584 5580 5576 5571 5567 5562 5558 5554 5550 5546 5543 5538 5534 5530 5526 5522 5519 5516 5512 5508 5505 5502 5499 5495
5782 5779 5777 5774 5771 5768 5766 5763 5760 5757 5754 5751 5748 5745 5742 5739 5735 5731 5729 5726 5722 5719 5717 5716 5712 5708 5708 5703 5695 5691 5688 5683 5680 5678 5676 5673 5670 5667 5666 5666 5663 5660 5656 5652 5648 5645 5641 5638 5634 5630 5626 5622 5618 5614 5610 5606 5602 5598 5594 5591 5586 5581 5576 5572 5568 5563 5559 5554 5550 5545 5540 5536 5532 5528 5524 5521 5517 5512 5508 5505 5502 5497 5494 5491 5488 5484
5778 5776 5773 5770 5767 5764 5762 5759 5756 5753 5750 5747 5744 5740 5737 5734 5731 5727 5725 5722 5718 5715 5712 5711 5708 5704 5703 5700 5691 5686 5683 5679 5675 5673 5670 5668 5665 5663 5661 5659 5656 5653 5650 5646 5643 5639 5635 5631 5628 5624 5620 5616 5612 5608 5604 5599 5595 5591 5586 5582 5579 5574 5569 5564 5560 5555 5550 5545 5541 5537 5532 5527 5522 5518 5514 5510 5506 5501 5497 5494 5490 5486 5482 5479 5476 5472
5775 5772 5769 5767 5764 5761 5758 5755 5752 5749 5746 5742 5739 5735 5732 5729 5725 5721 5719 5716 5712 5709 5707 5706 5704 5701 5699 5697 5690 5683 5679 5675 5672 5669 5667 5664 5661 5659 5655 5652 5649 5646 5643 5640 5636 5633 5629 5625 5622 5618 5613 5609 5605 5601 5597 5592 5588 5583 5578 5574 5570 5566 5561 5556 5551 5547 5542 5537 5532 5527 5523 5518 5513 5508 5503 5499 5495 5490 5485 5482 5478 5474 5470 5467 5463 5460
5771 5769 5766 5763 5760 5757 5754 5751 5748 5745 5742 5738 5735 5731 5727 5724 5719 5715 5713 5710 5707 5704 5702 5702 5700 5698 5695 5692 5687 5681 5675 5670 5667 5665 5664 5661 5658 5655 5651 5647 5643 5640 5636 5633 5629 5625 5622 5617 5614 5610 5605 5601 5597 5593 5588 5584 5579 5575 5570 5566 5561 5556 5552 5547 5542 5538 5533 5529 5523 5518 5513 5507 5502 5497 5492 5487 5483 5477 5472 5468 5465 5462 5458 5454 5450 5447
5766 5765 5763 5759 5756 5753 5750 5747 5743 5740 5738 5735 5731 5727 5723 5719 5714 5710 5708 5706 5703 5698 5696 5697 5696 5693 5691 5687 5683 5677 5671 5667 5663 5661 5659 5657 5654 5650 5646 5642 5638 5634 5629 5625 5621 5617 5613 5609 5605 5601 5597 5593 5589 5584 5580 5575 5571 5566 5562 5557 5552 5547 5542 5537 5533 5528 5523 5519 5514 5508 5502 5496 5490 5485 5480 5474 5469 5464 5459 5454 5450 5448 5445 5440 5436 5434
5762 5760 5758 5755 5752 5749 5746 5742 5739 5735 5733 5730 5727 5722 5719 5715 5710 5706 5703 5701 5699 5694 5691 5693 5692 5689 5685 5681 5678 5673 5667 5663 5660 5656 5653 5651 5648 5644 5640 5636 5631 5627 5623 5618 5614 5610 5606 5601 5597 5593 5589 5584 5580 5576 5571 5567 5562 5558 5553 5548 5543 5538 5533 5528 5523 5518 5512 5507 5502 5496 5490 5485 5479 5473 5467 5462 5456 5450 5446 5441 5436 5433 5430 5426 5422 5420
5758 5756 5754 5751 5748 5745 5741 5738 5735 5731 5728 5725 5722 5718 5715 5711 5706 5702 5699 5697 5694 5689 5686 5688 5689 5687 5682 5676 5675 5670 5664 5660 5656 5652 5648 5645 5642 5638 5633 5629 5625 5621 5617 5612 5608 5604 5599 5594 5590 5586 5582 5576 5572 5568 5563 5559 5554 5549 5544 5539 5534 5528 5522 5517 5512 5507 5501 5495 5489 5483 5477 5472 5466 5461 5456 5450 5444 5437 5431 5427 5423 5419 5415 5411 5407 5405
5754 5751 5749 5747 5744 5741 5737 5734 5730 5727 5723 5720 5717 5713 5710 5706 5702 5698 5694 5692 5690 5684 5681 5681 5682 5684 5679 5670 5668 5666 5661 5657 5651 5647 5645 5641 5637 5632 5627 5623 5619 5615 5611 5606 5602 5597 5592 5587 5582 5578 5575 5569 5564 5560 5555 5550 5545 5540 5535 5530 5525 5519 5512 5505 5500 5494 5488 5482 5477 5472 5465 5459 5453 5448 5443 5437 5431 5424 5417 5411 5407 5403 5400 5396 5392 5389
5749 5747 5746 5743 5739 5736 5733 5729 5727 5723 5718 5714 5712 5708 5704 5700 5697 5693 5690 5687 5684 5678 5676 5673 5672 5677 5676 5667 5662 5659 5655 5651 5646 5643 5641 5636 5632 5627 5622 5618 5614 5610 5606 5600 5595 5590 5585 5581 5575 5571 5567 5562 5557 5552 5547 5542 5536 5530 5524 5518 5514 5509 5504 5496 5489 5483 5476 5470 5464 5459 5453 5446 5440 5434 5428 5422 5416 5410 5403 5396 5389 5385 5383 5379 5376 5373
5745 5742 5741 5739 5736 5732 5728 5725 5722 5719 5715 5710 5707 5704 5700 5696 5692 5688 5685 5683 5679 5673 5671 5668 5663 5666 5669 5664 5658 5653 5649 5644 5641 5639 5636 5631 5627 5622 5617 5613 5609 5604 5599 5594 5588 5583 5579 5574 5569 5564 5559 5554 5549 5543 5537 5532 5526 5521 5515 5508 5501 5496 5492 5487 5479 5472 5465 5458 5451 5445 5439 5432 5426 5419 5413 5407 5400 5394 5389 5382 5374 5369 5366 5362 5359 5358
5740 5737 5736 5735 5731 5727 5724 5721 5716 5714 5711 5706 5703 5700 5696 5692 5689 5684 5681 5679 5675 5668 5665 5662 5657 5657 5659 5656 5651 5646 5641 5637 5634 5632 5629 5625 5620 5615 5610 5606 5601 5595 5590 5584 5580 5576 5571 5566 5560 5554 5549 5544 5539 5532 5526 5521 5516 5511 5505 5499 5493 5486 5480 5475 5469 5461 5454 5448 5441 5433 5426 5420 5413 5406 5399 5393 5387 5380 5374 5369 5361 5355 5351 5347 5343 5341
5736 5733 5731 5730 5727 5722 5719 5717 5712 5707 5705 5702 5699 5695 5692 5689 5685 5681 5678 5677 5674 5667 5663 5657 5652 5653 5653 5648 5643 5638 5633 5628 5626 5625 5621 5616 5612 5607 5602 5597 5593 5587 5581 5576 5572 5567 5562 5556 5551 5546 5540 5534 5529 5523 5518 5512 5506 5501 5495 5488 5482 5476 5470 5463 5457 5449 5442 5435 5429 5421 5413 5406 5399 5392 5386 5380 5374 5367 5360 5354 5347 5340 5335 5331 5326 5323
5732 5729 5726 5724 5722 5718 5715 5712 5708 5703 5700 5697 5694 5691 5688 5685 5682 5677 5672 5671 5669 5665 5662 5655 5647 5649 5651 5644 5638 5634 5627 5622 5620 5619 5615 5609 5605 5600 5595 5589 5584 5579 5574 5569 5564 5559 5553 5547 5542 5537 5532 5526 5520 5514 5509 5503 5497 5491 5485 5477 5470 5464 5457 5451 5444 5437 5429 5423 5417 5409 5400 5392 5385 5378 5371 5364 5357 5351 5343 5336 5329 5322 5316 5312 5308 5306
5728 5725 5722 5720 5717 5714 5711 5706 5703 5700 5697 5694 5691 5687 5684 5681 5679 5674 5667 5664 5660 5657 5657 5651 5642 5642 5642 5637 5633 5629 5622 5616 5614 5612 5607 5602 5597 5592 5588 5583 5577 5571 5566 5562 5557 5552 5546 5540 5534 5528 5523 5517 5511 5505 5499 5493 5487 5480 5473 5466 5459 5452 5446 5439 5433 5426 5419 5412 5405 5397 5389 5380 5372 5364 5356 5348 5341 5334 5327 5318 5310 5303 5297 5292 5290 5289
5724 5720 5718 5715 5713 5710 5708 5704 5700 5698 5695 5691 5688 5685 5682 5678 5675 5671 5666 5660 5655 5652 5651 5645 5639 5636 5632 5628 5625 5620 5614 5610 5608 5604 5599 5595 5590 5585 5580 5575 5570 5565 5561 5555 5549 5543 5537 5531 5525 5520 5514 5509 5502 5496 5489 5483 5476 5470 5463 5455 5449 5442 5435 5428 5422 5415 5408 5400 5393 5385 5377 5368 5360 5352 5344 5336 5327 5319 5311 5302 5293 5286 5281 5276 5274 5274
5720 5716 5713 5710 5708 5705 5703 5700 5697 5695 5692 5688 5686 5682 5679 5675 5671 5667 5663 5657 5651 5648 5645 5640 5637 5635 5628 5623 5620 5614 5609 5606 5602 5598 5593 5589 5584 5579 5574 5568 5562 5558 5553 5547 5541 5534 5528 5523 5517 5511 5505 5498 5491 5485 5479 5473 5467 5460 5454 5446 5438 5432 5425 5418 5411 5404 5396 5388 5380 5373 5364 5356 5348 5341 5333 5325 5316 5307 5298 5289 5279 5272 5267 5263 5261 5262
5717 5714 5710 5706 5703 5701 5697 5694 5691 5689 5687 5683 5680 5678 5675 5671 5667 5663 5658 5652 5645 5641 5637 5633 5630 5630 5627 5620 5614 5609 5605 5602 5597 5593 5588 5583 5578 5573 5567 5561 5555 5550 5543 5537 5531 5526 5520 5515 5508 5502 5495 5488 5481 5475 5469 5464 5458 5451 5445 5438 5430 5422 5416 5408 5400 5392 5384 5376 5367 5359 5352 5344 5337 5330 5322 5314 5306 5296 5287 5279 5270 5261 5256 5253 5251 5252
5715 5713 5709 5704 5701 5698 5694 5690 5686 5683 5681 5678 5674 5671 5669 5666 5662 5658 5653 5647 5641 5635 5632 5627 5622 5620 5620 5614 5606 5602 5599 5594 5590 5586 5581 5577 5571 5565 5559 5553 5547 5542 5535 5528 5522 5517 5511 5505 5499 5493 5486 5479 5473 5467 5460 5454 5448 5441 5435 5430 5423 5415 5406 5398 5390 5381 5373 5364 5355 5348 5342 5335 5328 5320 5312 5305 5296 5288 5279 5270 5262 5254 5248 5246 5244 5244
5711 5710 5706 5702 5699 5696 5692 5688 5683 5678 5675 5672 5668 5665 5663 5660 5656 5652 5647 5642 5636 5630 5628 5624 5617 5612 5611 5606 5599 5594 5591 5586 5582 5578 5573 5568 5563 5557 5550 5545 5540 5534 5527 5521 5514 5508 5502 5496 5490 5485 5478 5472 5465 5458 5452 5446 5439 5433 5426 5420 5413 5405 5396 5387 5379 5371 5363 5356 5349 5342 5335 5328 5320 5312 5304 5296 5289 5281 5272 5264 5256 5248 5243 5240 5239 5239
5707 5706 5703 5699 5697 5694 5689 5684 5680 5675 5671 5667 5664 5660 5657 5654 5650 5646 5642 5637 5630 5625 5621 5619 5613 5607 5602 5598 5593 5588 5583 5579 5575 5571 5566 5561 5555 5550 5544 5538 5532 5526 5519 5513 5507 5501 5495 5489 5482 5476 5469 5463 5456 5450 5444 5439 5432 5426 5419 5411 5403 5395 5386 5378 5370 5363 5357 5350 5343 5336 5329 5321 5314 5306 5298 5290 5282 5274 5266 5258 5251 5245 5240 5236 5235 5235
5703 5701 5698 5695 5693 5691 5686 5680 5675 5671 5667 5662 5659 5656 5653 5648 5644 5640 5635 5630 5625 5620 5615 5612 5609 5603 5596 5590 5587 5582 5576 5572 5569 5564 5560 5554 5548 5543 5537 5531 5524 5518 5512 5505 5500 5494 5488 5481 5474 5467 5460 5454 5448 5441 5436 5431 5425 5417 5409 5402 5394 5386 5378 5370 5364 5358 5351 5345 5337 5330 5322 5315 5307 5300 5293 5284 5276 5269 5261 5253 5247 5241 5237 5233 5231 5231
5698 5696 5693 5689 5687 5686 5682 5676 5671 5667 5663 5658 5654 5652 5648 5643 5638 5634 5630 5625 5619 5615 5611 5607 5603 5600 5593 5586 5581 5576 5570 5566 5563 5559 5554 5548 5540 5534 5529 5524 5517 5510 5503 5497 5490 5485 5479 5473 5466 5459 5452 5445 5439 5432 5425 5420 5414 5407 5400 5393 5386 5379 5372 5364 5357 5352 5345 5338 5331 5323 5315 5308 5300 5293 5286 5279 5270 5263 5256 5249 5243 5238 5234 5231 5228 5228
5694 5691 5688 5683 5680 5679 5676 5671 5666 5661 5657 5653 5650 5646 5643 5638 5633 5628 5624 5619 5613 5609 5606 5602 5597 5592 5587 5582 5577 5571 5564 5558 5554 5550 5545 5539 5533 5526 5520 5515 5509 5502 5495 5488 5482 5476 5471 5465 5458 5451 5443 5437 5430 5423 5415 5408 5403 5397 5391 5385 5379 5372 5366 5359 5351 5345 5338 5331 5324 5316 5309 5302 5294 5287 5280 5273 5265 5258 5251 5245 5239 5234 5231 5228 5225 5224
5690 5686 5682 5678 5674 5672 5670 5666 5661 5656 5651 5647 5644 5641 5637 5632 5627 5622 5618 5613 5608 5603 5599 5595 5590 5584 5579 5575 5571 5566 5560 5551 5544 5539 5533 5528 5523 5519 5513 5505 5498 5492 5485 5479 5473 5467 5461 5455 5449 5441 5433 5426 5419 5412 5404 5397 5391 5386 5380 5375 5370 5364 5358 5351 5344 5337 5330 5323 5316 5310 5303 5296 5289 5282 5274 5267 5260 5253 5246 5241 5235 5231 5227 5224 5222 5221
5686 5681 5678 5673 5669 5666 5664 5660 5656 5652 5646 5642 5638 5634 5630 5625 5620 5616 5612 5607 5602 5599 5595 5589 5584 5579 5574 5569 5564 5559 5554 5546 5538 5531 5525 5519 5513 5509 5504 5497 5490 5482 5475 5469 5463 5457 5451 5444 5438 5431 5423 5415 5408 5402 5395 5389 5383 5378 5373 5367 5362 5356 5350 5344 5337 5329 5322 5316 5309 5303 5297 5291 5284 5277 5270 5262 5255 5248 5242 5236 5232 5227 5224 5221 5219 5218
5681 5677 5673 5669 5664 5660 5657 5653 5649 5645 5640 5636 5633 5628 5623 5619 5614 5611 5607 5601 5596 5593 5591 5586 5580 5575 5570 5565 5558 5551 5546 5540 5533 5525 5519 5514 5507 5499 5493 5487 5481 5474 5466 5459 5452 5446 5440 5433 5425 5420 5414 5407 5400 5394 5389 5384 5379 5375 5369 5363 5356 5350 5344 5337 5330 5323 5316 5310 5303 5296 5291 5285 5278 5272 5264 5257 5250 5243 5237 5232 5228 5224 5221 5218 5216 5215
5677 5672 5668 5663 5659 5655 5651 5647 5644 5639 5635 5632 5629 5623 5618 5614 5609 5605 5602 5598 5592 5588 5583 5578 5573 5567 5561 5556 5550 5543 5538 5533 5527 5518 5510 5505 5499 5492 5485 5477 5471 5465 5458 5449 5441 5434 5427 5421 5414 5408 5404 5398 5392 5387 5383 5378 5373 5368 5363 5356 5349 5343 5336 5329 5323 5316 5310 5303 5296 5290 5284 5278 5272 5266 5259 5252 5245 5239 5233 5229 5225 5221 5217 5214 5212 5211
5672 5668 5663 5659 5655 5651 5646 5642 5639 5634 5630 5627 5624 5618 5613 5608 5602 5596 5593 5589 5585 5580 5574 5568 5563 5558 5552 5547 5542 5536 5529 5525 5521 5513 5503 5497 5490 5483 5476 5468 5460 5454 5448 5440 5432 5424 5417 5411 5405 5399 5394 5389 5383 5378 5373 5369 5364 5358 5353 5347 5341 5335 5328 5322 5315 5309 5303 5296 5290 5283 5277 5271 5265 5260 5254 5247 5240 5234 5228 5224 5220 5217 5214 5211 5209 5208
5668 5664 5659 5654 5650 5646 5641 5637 5633 5629 5625 5621 5616 5611 5606 5602 5596 5590 5585 5582 5578 5573 5567 5561 5555 5550 5545 5540 5535 5528 5521 5517 5514 5507 5496 5488 5481 5473 5467 5460 5451 5444 5437 5430 5425 5419 5412 5406 5400 5393 5388 5382 5376 5370 5365 5360 5355 5350 5345 5339 5333 5327 5321 5315 5308 5302 5296 5290 5283 5276 5270 5265 5259 5253 5248 5241 5235 5229 5224 5220 5216 5213 5210 5208 5206 5205
5664 5659 5655 5650 5646 5641 5637 5632 5627 5623 5619 5615 5610 5605 5601 5597 5592 5586 5581 5578 5573 5566 5559 5555 5550 5544 5538 5532 5526 5520 5511 5503 5500 5496 5487 5479 5472 5463 5455 5449 5443 5437 5430 5424 5417 5411 5406 5401 5395 5389 5383 5377 5371 5365 5360 5354 5348 5343 5338 5332 5325 5319 5313 5307 5301 5295 5288 5283 5276 5270 5263 5258 5253 5247 5241 5236 5230 5224 5219 5215 5212 5209 5206 5204 5202 5201
5659 5655 5650 5645 5641 5636 5632 5627 5622 5618 5614 5611 5605 5601 5597 5593 5587 5581 5575 5572 5568 5561 5552 5546 5542 5537 5530 5523 5516 5509 5501 5490 5483 5480 5475 5468 5462 5454 5446 5440 5434 5427 5422 5417 5411 5405 5399 5393 5387 5382 5376 5371 5366 5360 5354 5349 5343 5337 5331 5325 5319 5313 5306 5300 5294 5288 5281 5274 5268 5263 5256 5251 5246 5241 5235 5230 5224 5219 5214 5210 5207 5204 5202 5200 5199 5198
5654 5650 5645 5640 5636 5631 5627 5622 5618 5614 5611 5607 5601 5596 5592 5588 5582 5575 5568 5561 5558 5555 5548 5539 5532 5526 5520 5513 5505 5498 5493 5484 5476 5470 5464 5458 5453 5447 5440 5434 5427 5418 5410 5405 5400 5396 5392 5386 5379 5373 5367 5362 5357 5352 5347 5342 5336 5330 5324 5318 5312 5306 5300 5293 5287 5280 5274 5267 5261 5255 5249 5244 5239 5234 5229 5224 5219 5214 5209 5205 5202 5200 5198 5196 5195 5193
5650 5645 5640 5636 5631 5627 5622 5617 5613 5609 5606 5602 5596 5590 5584 5580 5574 5568 5562 5555 5548 5543 5539 5533 5525 5517 5511 5506 5499 5491 5485 5479 5472 5464 5457 5450 5443 5437 5431 5426 5421 5414 5406 5399 5393 5387 5383 5378 5372 5365 5359 5353 5348 5343 5338 5333 5328 5322 5316 5310 5305 5299 5292 5286 5279 5273 5266 5260 5253 5247 5242 5237 5232 5227 5223 5219 5214 5209 5204 5200 5197 5195 5193 5191 5190 5189
5645 5640 5635 5631 5627 5622 5617 5611 5606 5602 5597 5593 5588 5583 5577 5572 5566 5561 5557 5552 5544 5535 5530 5525 5519 5512 5505 5499 5494 5488 5479 5473 5466 5458 5451 5443 5435 5427 5421 5415 5410 5405 5399 5393 5387 5380 5374 5369 5364 5357 5351 5345 5340 5335 5329 5325 5320 5314 5308 5302 5297 5291 5284 5278 5271 5265 5258 5252 5246 5240 5235 5230 5225 5221 5217 5213 5209 5204 5199 5196 5193 5190 5188 5187 5185 5184
5640 5636 5631 5626 5621 5617 5612 5606 5600 5596 5591 5586 5581 5576 5571 5566 5561 5555 5549 5545 5539 5531 5523 5518 5513 5507 5499 5491 5485 5480 5472 5465 5458 5450 5443 5435 5427 5419 5413 5407 5401 5395 5390 5384 5378 5372 5367 5361 5356 5350 5344 5338 5332 5327 5321 5316 5311 5306 5300 5294 5288 5283 5277 5270 5264 5257 5251 5245 5239 5233 5228 5224 5219 5215 5211 5208 5204 5199 5195 5191 5188 5186 5184 5182 5181 5180
5635 5631 5626 5622 5617 5612 5607 5602 5597 5592 5588 5583 5577 5573 5568 5562 5557 5551 5545 5539 5533 5526 5518 5511 5505 5500 5493 5484 5475 5469 5462 5455 5448 5441 5433 5425 5418 5411 5405 5399 5392 5387 5382 5376 5371 5365 5360 5355 5349 5344 5338 5331 5325 5319 5313 5308 5303 5298 5293 5287 5281 5275 5269 5263 5257 5250 5243 5238 5232 5226 5221 5217 5213 5209 5205 5202 5198 5195 5191 5187 5185 5182 5180 5179 5177 5177
5631 5626 5622 5617 5613 5608 5603 5599 5594 5589 5584 5580 5575 5569 5564 5558 5552 5546 5540 5533 5527 5519 5511 5503 5496 5490 5485 5476 5467 5459 5452 5445 5440 5433 5425 5418 5411 5404 5398 5392 5385 5379 5374 5370 5364 5359 5354 5348 5343 5337 5331 5325 5318 5312 5306 5300 5294 5289 5284 5279 5273 5267 5261 5255 5249 5242 5236 5230 5224 5219 5214 5210 5206 5203 5199 5196 5193 5190 5187 5184 5181 5179 5177 5176 5174 5173
5627 5622 5617 5613 5608 5605 5600 5596 5592 5587 5581 5576 5571 5565 5559 5553 5546 5539 5533 5527 5520 5513 5505 5496 5488 5481 5476 5470 5461 5453 5445 5438 5432 5426 5418 5411 5405 5398 5392 5386 5379 5373 5368 5363 5358 5353 5347 5342 5336 5330 5324 5318 5312 5305 5299 5293 5287 5281 5275 5270 5264 5259 5253 5247 5241 5234 5228 5223 5217 5211 5206 5202 5199 5196 5193 5190 5188 5185 5182 5180 5178 5176 5174 5173 5171 5170
5622 5618 5613 5609 5604 5600 5596 5592 5588 5583 5576 5569 5564 5559 5553 5548 5542 5535 5527 5520 5514 5507 5500 5491 5482 5474 5469 5464 5456 5448 5440 5431 5424 5418 5412 5405 5398 5391 5385 5379 5373 5367 5361 5356 5351 5345 5340 5334 5328 5322 5316 5311 5305 5299 5292 5286 5279 5273 5267 5261 5255 5250 5244 5238 5232 5226 5220 5215 5209 5204 5199 5195 5192 5189 5187 5184 5182 5180 5177 5175 5174 5172 5170 5169 5168 5167
5618 5613 5609 5605 5600 5596 5591 5587 5583 5579 5573 5566 5558 5552 5546 5540 5534 5528 5521 5514 5508 5503 5497 5489 5479 5468 5461 5455 5449 5442 5435 5427 5419 5411 5404 5398 5391 5385 5378 5372 5366 5360 5355 5349 5344 5338 5332 5326 5321 5315 5309 5303 5297 5291 5285 5279 5272 5265 5258 5252 5246 5241 5235 5230 5224 5217 5212 5207 5202 5197 5193 5189 5185 5183 5180 5178 5176 5175 5172 5170 5169 5167 5166 5165 5164 5163
5613 5608 5604 5599 5595 5590 5585 5579 5574 5570 5566 5560 5553 5547 5540 5534 5529 5523 5517 5511 5504 5497 5491 5485 5477 5467 5457 5449 5442 5435 5428 5421 5413 5406 5398 5391 5385 5378 5372 5366 5360 5354 5348 5342 5337 5331 5325 5319 5313 5307 5301 5295 5289 5283 5277 5271 5264 5257 5250 5243 5238 5232 5226 5222 5216 5210 5204 5199 5194 5190 5186 5182 5179 5176 5174 5172 5170 5169 5167 5165 5164 5162 5161 5160 5160 5159
5608 5603 5598 5593 5589 5584 5580 5574 5569 5563 5558 5552 5547 5542 5536 5530 5525 5519 5513 5506 5500 5493 5486 5479 5473 5466 5456 5446 5437 5429 5422 5414 5406 5399 5392 5385 5379 5372 5366 5360 5354 5348 5342 5336 5330 5324 5318 5312 5306 5300 5294 5288 5282 5275 5269 5263 5256 5250 5243 5236 5230 5224 5218 5212 5207 5202 5196 5191 5186 5182 5179 5175 5173 5170 5168 5166 5164 5163 5162 5160 5158 5157 5156 5156 5155 5155